Retour au catalogue

STARLINK-30411

ActifCommunicationsVLEO
NORAD 57828·PAYLOAD·🇺🇸 United States

Lancé Sep 9, 2023 depuis Cape Canaveral Space Force Station

Loading…

Prochains Passages (prochaines 24 heures)

TLE

FraisSource: CelesTrak SupGP

Époque: Sep 15, 2026, 01:43 UTC

1 57828C 23138W   26258.07201389 -.00016599  00000+0 -60125-3 0  2586
2 57828  43.0016 244.5041 0001229 262.6215  86.0793 15.27584334    10

Suivez STARLINK-30411 en temps réel avec AllMySat

Download on the App Store